Погода в Вендинге

Россия / Республика Коми     63°27′32″N   47°58′09″E
темп.,
°C
ветер,
м/с
пор.,
м/с
влажн.,
%
обл.,
%
осадки,
мм/ч
давл.,
гПа
погр.,
м
7 августа, вс
вс700:00+18ю311750 0.0 1017241
03:00+16ю3118118 0.0 1017225
06:00+20ю311690 0.0 1017364
09:00+26ююз510430 0.0 10151434
12:00+29ююз69320 0.0 10142617
15:00+30ююз68310 0.0 10132919
18:00+27ю5940100 0.0 10121348
21:00+20з398714 0.6 1013268
8 августа, пн
пн800:00+16з279797 1.9 1015299
03:00+14з2795100 1.9 1016261
06:00+15з2794100 0.0 1018375
09:00+18зсз3555100 0.0 10191204
12:00+21з3540100 0.0 10201891
15:00+22з4535100 0.0 10202304
18:00+21з254198 0.0 1020732
21:00+15сз225792 0.0 102245
9 августа, вт
вт900:00+12зсз2270100 0.0 102329
03:00+10сз117892 0.0 102416
06:00+13сз236577 0.0 1025167
09:00+18ссз2443100 0.0 10251370
12:00+21ссз23357 0.0 10252087
15:00+21ссз233277 0.0 10242336
18:00+18св3747100 0.0 1024480
21:00+13св2764100 0.0 1025155
10 августа, ср
ср1000:00+11св256997 0.0 102584
03:00+10св2275100 0.0 102537
06:00+13всв2362100 0.0 1024147
09:00+18всв234398 0.0 1023852
12:00+22всв223512 0.0 10222091
15:00+22всв123487 0.0 10202284
18:00+17ююз2555100 0.0 1020237
21:00+15зюз236588 0.0 102083
11 августа, чт
чт1100:00+11зюз118267 0.0 101914
03:00+13ссв007197 0.0 101910
06:00+14зюз0066100 0.0 101927
09:00+18зюз115197 0.0 1018295
12:00+19зюз1350100 0.0 1017227
15:00+22зюз463599 0.0 10152364
18:00+19юз3846100 0.0 1013545
21:00+16з41067100 0.1 1013580